COSMOS 2251 DEB, 38062

Orbit data source: Space-Track

COSMOS 2251 DEB, 38062 is space debris in LEO originally from a launch on Wed, 16 Jun 1993 UTC launched from the Plesetsk Missile And Space Complex (PKMTR). The debris from Iridium 33, an American commercial communications satellite, has been tracked extensively since its accidental collision with the defunct Russian satellite Cosmos 2251 in 2009. This event, occurring at high speed in low Earth orbit (LEO), generated thousands of pieces of space debris, significantly increasing the risk of further collisions. The Iridium 33 debris cloud has impacted space traffic management and orbital debris mitigation strategies, making it a subject of ongoing study in space situational awareness.

Loading next visibility...
Identifier
38062, 1993-036BRU
Orbit
LEO
Country
Flag of CISCIS
Related business
Manufacturer
Unknown
Mission
Spacecraft
Bus & Motor
Unknown
Mass
Unknown
Launch date (UTC)
1993-06-16 (33 years ago)
Launch vehicle
Unknown
Launch site
Plesetsk Missile And Space Complex (PKMTR)
Object type
Payload
Rocket body
Debris
Shape & HBR
Unknown shape, 0.1 m
Radar Cross Section
Small (<0.1 m²)

Expand to show TLE details & history
Last TLE update: 6 hours ago

TLE from 6 hours ago
0 COSMOS 2251 DEB
1 38062U 93036BRU 26119.97344617  .00026729  00000-0  20054-2 0  9999
2 38062  74.0073   9.5494 0016406 126.7028 250.7318 15.02434491651018
Epoch: 2026-04-29T23:21Z
TLE epoch observation values (Epoch: 2026-04-29T23:21:45.749Z)
Latitude
16.55966°
Longitude
166.04404°
Altitude
565.205 km
Speed
7.578 km/s
True Right ascension
00h 57m 38s
True Declination
16° 27' 48"
Sunlit
Object was in daylight at epoch
Visualization orbit readout
Latitude
Unknown
Longitude
Unknown
Altitude
Unknown
Speed
Unknown
Apparent Right ascension
Unknown
Apparent Declination
Unknown
Sunlit
N/A
Visualization observer readout
Local Sidereal Time
12:36:36
Azimuth
Unknown
Elevation
Unknown
Doppler factor
Unknown
Orbital elements
Apogee altitude
568.323 km
Perigee altitude
545.568 km
Semi-major axis
6,935.083 km
Eccentricity
0.00164
Inclination
74.0073°
RAAN
9.5494°
Arg. of periapsis
126.7028°
True anomaly
250.55445°
Mean anomaly
250.7318°
Eccentric anomaly
250.64311°
Mean motion
3.75808 °/min
Orbital period
95.79 mins
BSTAR
0.0020054

Documentation

Showing up to 5 results
|